Time,TemperatureF,DewpointF,PressureIn,WindDirection,WindDirectionDegrees,WindSpeedMPH,WindSpeedGustMPH,Humidity,HourlyPrecipIn,Conditions,Clouds,dailyrainin,SoftwareType,DateUTC
2013-01-14 00:00:00,15.0,-99.9,-100.00,SW,229,5.0,8.0,-999,0.00,,,0.00,,2013-01-14 06:00:00,
2013-01-14 00:03:00,15.0,-99.9,-100.00,SW,224,3.0,7.0,-999,0.00,,,0.00,,2013-01-14 06:03:00,
2013-01-14 00:12:00,15.0,-99.9,-100.00,SW,224,3.0,7.0,-999,0.00,,,0.00,,2013-01-14 06:12:00,
2013-01-14 00:23:00,15.0,-99.9,-100.00,SW,224,3.0,7.0,-999,0.00,,,0.00,,2013-01-14 06:23:00,
2013-01-14 00:33:00,15.0,-99.9,-100.00,SW,229,5.0,8.0,-999,0.00,,,0.00,,2013-01-14 06:33:00,
2013-01-14 00:43:00,15.0,-99.9,-100.00,SW,229,5.0,8.0,-999,0.00,,,0.00,,2013-01-14 06:43:00,
2013-01-14 00:53:00,15.0,-99.9,-100.00,SW,229,5.0,8.0,-999,0.00,,,0.00,,2013-01-14 06:53:00,
2013-01-14 01:33:00,14.0,-99.9,-100.00,WNW,290,4.0,8.0,-999,0.00,,,0.00,,2013-01-14 07:33:00,
2013-01-14 01:43:00,14.0,-99.9,-100.00,WNW,290,4.0,8.0,-999,0.00,,,0.00,,2013-01-14 07:43:00,
2013-01-14 01:53:00,14.0,-99.9,-100.00,WNW,290,4.0,8.0,-999,0.00,,,0.00,,2013-01-14 07:53:00,
2013-01-14 02:02:00,14.0,-99.9,-100.00,WNW,294,3.0,5.0,-999,0.00,,,0.00,,2013-01-14 08:02:00,
2013-01-14 02:12:00,14.0,-99.9,-100.00,WNW,294,3.0,5.0,-999,0.00,,,0.00,,2013-01-14 08:12:00,
2013-01-14 02:22:00,14.0,-99.9,-100.00,WNW,294,3.0,5.0,-999,0.00,,,0.00,,2013-01-14 08:22:00,
2013-01-14 02:33:00,14.0,-99.9,-100.00,WNW,287,4.0,7.0,-999,0.00,,,0.00,,2013-01-14 08:33:00,
2013-01-14 02:43:00,14.0,-99.9,-100.00,WNW,287,4.0,7.0,-999,0.00,,,0.00,,2013-01-14 08:43:00,
2013-01-14 02:53:00,14.0,-99.9,-100.00,WNW,287,4.0,7.0,-999,0.00,,,0.00,,2013-01-14 08:53:00,
2013-01-14 03:03:00,14.0,-99.9,-100.00,WSW,254,2.0,4.0,-999,0.00,,,0.00,,2013-01-14 09:03:00,
2013-01-14 03:12:00,14.0,-99.9,-100.00,WSW,254,2.0,4.0,-999,0.00,,,0.00,,2013-01-14 09:12:00,
2013-01-14 03:23:00,14.0,-99.9,-100.00,WSW,254,2.0,4.0,-999,0.00,,,0.00,,2013-01-14 09:23:00,
2013-01-14 03:34:00,11.0,-99.9,-100.00,SSW,207,2.0,3.0,-999,0.00,,,0.00,,2013-01-14 09:34:00,
2013-01-14 03:43:00,11.0,-99.9,-100.00,SSW,207,2.0,3.0,-999,0.00,,,0.00,,2013-01-14 09:43:00,
2013-01-14 03:53:00,11.0,-99.9,-100.00,SSW,207,2.0,3.0,-999,0.00,,,0.00,,2013-01-14 09:53:00,
2013-01-14 04:03:00,12.0,-99.9,-100.00,SSW,211,3.0,4.0,-999,0.00,,,0.00,,2013-01-14 10:03:00,
2013-01-14 04:12:00,12.0,-99.9,-100.00,SSW,211,3.0,4.0,-999,0.00,,,0.00,,2013-01-14 10:12:00,
2013-01-14 04:23:00,12.0,-99.9,-100.00,SSW,211,3.0,4.0,-999,0.00,,,0.00,,2013-01-14 10:23:00,
2013-01-14 04:33:00,9.0,-99.9,-100.00,SSW,198,2.0,3.0,-999,0.00,,,0.00,,2013-01-14 10:33:00,
2013-01-14 04:43:00,9.0,-99.9,-100.00,SSW,198,2.0,3.0,-999,0.00,,,0.00,,2013-01-14 10:43:00,
2013-01-14 04:53:00,9.0,-99.9,-100.00,SSW,198,2.0,3.0,-999,0.00,,,0.00,,2013-01-14 10:53:00,
2013-01-14 05:02:00,9.0,-99.9,-100.00,SSW,202,2.0,3.0,-999,0.00,,,0.00,,2013-01-14 11:02:00,
2013-01-14 05:12:00,9.0,-99.9,-100.00,SSW,202,2.0,3.0,-999,0.00,,,0.00,,2013-01-14 11:12:00,
2013-01-14 05:23:00,9.0,-99.9,-100.00,SSW,202,2.0,3.0,-999,0.00,,,0.00,,2013-01-14 11:23:00,
2013-01-14 05:33:00,12.0,-99.9,-100.00,WSW,244,2.0,5.0,-999,0.00,,,0.00,,2013-01-14 11:33:00,
2013-01-14 05:43:00,12.0,-99.9,-100.00,WSW,244,2.0,5.0,-999,0.00,,,0.00,,2013-01-14 11:43:00,
2013-01-14 05:53:00,12.0,-99.9,-100.00,WSW,244,2.0,5.0,-999,0.00,,,0.00,,2013-01-14 11:53:00,
2013-01-14 06:03:00,9.0,-99.9,-100.00,South,191,2.0,3.0,-999,0.00,,,0.00,,2013-01-14 12:03:00,
2013-01-14 06:12:00,9.0,-99.9,-100.00,South,191,2.0,3.0,-999,0.00,,,0.00,,2013-01-14 12:12:00,
2013-01-14 06:23:00,9.0,-99.9,-100.00,South,191,2.0,3.0,-999,0.00,,,0.00,,2013-01-14 12:23:00,
2013-01-14 06:33:00,8.0,-99.9,-100.00,South,191,2.0,3.0,-999,0.00,,,0.00,,2013-01-14 12:33:00,
2013-01-14 06:43:00,8.0,-99.9,-100.00,South,191,2.0,3.0,-999,0.00,,,0.00,,2013-01-14 12:43:00,
2013-01-14 06:53:00,8.0,-99.9,-100.00,South,191,2.0,3.0,-999,0.00,,,0.00,,2013-01-14 12:53:00,
2013-01-14 07:03:00,9.0,-99.9,-100.00,SSW,201,2.0,2.0,-999,0.00,,,0.00,,2013-01-14 13:03:00,
2013-01-14 07:13:00,9.0,-99.9,-100.00,SSW,201,2.0,2.0,-999,0.00,,,0.00,,2013-01-14 13:13:00,
2013-01-14 07:23:00,9.0,-99.9,-100.00,SSW,201,2.0,2.0,-999,0.00,,,0.00,,2013-01-14 13:23:00,
2013-01-14 07:34:00,9.0,-99.9,-100.00,South,188,1.0,2.0,-999,0.00,,,0.00,,2013-01-14 13:34:00,
2013-01-14 07:43:00,9.0,-99.9,-100.00,South,188,1.0,2.0,-999,0.00,,,0.00,,2013-01-14 13:43:00,
2013-01-14 07:53:00,9.0,-99.9,-100.00,South,188,1.0,2.0,-999,0.00,,,0.00,,2013-01-14 13:53:00,
2013-01-14 08:03:00,7.0,-99.9,-100.00,South,187,1.0,2.0,-999,0.00,,,0.00,,2013-01-14 14:03:00,
2013-01-14 08:13:00,7.0,-99.9,-100.00,South,187,1.0,2.0,-999,0.00,,,0.00,,2013-01-14 14:13:00,
2013-01-14 08:23:00,7.0,-99.9,-100.00,South,187,1.0,2.0,-999,0.00,,,0.00,,2013-01-14 14:23:00,
2013-01-14 08:33:00,12.0,-99.9,-100.00,West,272,3.0,5.0,-999,0.00,,,0.00,,2013-01-14 14:33:00,
2013-01-14 08:43:00,12.0,-99.9,-100.00,West,272,3.0,5.0,-999,0.00,,,0.00,,2013-01-14 14:43:00,
2013-01-14 08:53:00,12.0,-99.9,-100.00,West,272,3.0,5.0,-999,0.00,,,0.00,,2013-01-14 14:53:00,
2013-01-14 09:04:00,13.0,-99.9,-100.00,NW,307,2.0,5.0,-999,0.00,,,0.00,,2013-01-14 15:04:00,
2013-01-14 09:13:00,13.0,-99.9,-100.00,NW,307,2.0,5.0,-999,0.00,,,0.00,,2013-01-14 15:13:00,
2013-01-14 09:24:00,13.0,-99.9,-100.00,NW,307,2.0,5.0,-999,0.00,,,0.00,,2013-01-14 15:24:00,
2013-01-14 09:34:00,13.0,-99.9,-100.00,NW,316,5.0,6.0,-999,0.00,,,0.00,,2013-01-14 15:34:00,
2013-01-14 09:43:00,13.0,-99.9,-100.00,NW,316,5.0,6.0,-999,0.00,,,0.00,,2013-01-14 15:43:00,
2013-01-14 09:54:00,13.0,-99.9,-100.00,NW,316,5.0,6.0,-999,0.00,,,0.00,,2013-01-14 15:54:00,
2013-01-14 10:04:00,15.0,-99.9,-100.00,NW,322,5.0,8.0,-999,0.00,,,0.00,,2013-01-14 16:04:00,
2013-01-14 10:13:00,15.0,-99.9,-100.00,NW,322,5.0,8.0,-999,0.00,,,0.00,,2013-01-14 16:13:00,
2013-01-14 10:23:00,15.0,-99.9,-100.00,NW,322,5.0,8.0,-999,0.00,,,0.00,,2013-01-14 16:23:00,
2013-01-14 10:33:00,17.0,-99.9,-100.00,WNW,299,1.0,2.0,-999,0.00,,,0.00,,2013-01-14 16:33:00,
2013-01-14 10:43:00,17.0,-99.9,-100.00,WNW,299,1.0,2.0,-999,0.00,,,0.00,,2013-01-14 16:43:00,
2013-01-14 10:54:00,17.0,-99.9,-100.00,WNW,299,1.0,2.0,-999,0.00,,,0.00,,2013-01-14 16:54:00,
2013-01-14 11:04:00,18.0,-99.9,-100.00,WSW,237,2.0,4.0,-999,0.00,,,0.00,,2013-01-14 17:04:00,
2013-01-14 11:12:00,18.0,-99.9,-100.00,WSW,237,2.0,4.0,-999,0.00,,,0.00,,2013-01-14 17:12:00,
2013-01-14 11:23:00,18.0,-99.9,-100.00,WSW,237,2.0,4.0,-999,0.00,,,0.00,,2013-01-14 17:23:00,
2013-01-14 11:34:00,20.0,-99.9,-100.00,SW,225,3.0,5.0,-999,0.00,,,0.00,,2013-01-14 17:34:00,
2013-01-14 11:44:00,20.0,-99.9,-100.00,SW,225,3.0,5.0,-999,0.00,,,0.00,,2013-01-14 17:44:00,
2013-01-14 11:54:00,20.0,-99.9,-100.00,SW,225,3.0,5.0,-999,0.00,,,0.00,,2013-01-14 17:54:00,
2013-01-14 12:03:00,20.0,-99.9,-100.00,WSW,241,3.0,5.0,-999,0.00,,,0.00,,2013-01-14 18:03:00,
2013-01-14 12:13:00,20.0,-99.9,-100.00,WSW,241,3.0,5.0,-999,0.00,,,0.00,,2013-01-14 18:13:00,
2013-01-14 12:23:00,20.0,-99.9,-100.00,WSW,241,3.0,5.0,-999,0.00,,,0.00,,2013-01-14 18:23:00,
2013-01-14 12:30:00,23.0,-99.9,-100.00,WNW,299,3.0,6.0,-999,0.00,,,0.00,,2013-01-14 18:30:00,
2013-01-14 12:33:00,22.0,-99.9,-100.00,WSW,238,2.0,5.0,-999,0.00,,,0.00,,2013-01-14 18:33:00,
2013-01-14 12:43:00,22.0,-99.9,-100.00,WSW,238,2.0,5.0,-999,0.00,,,0.00,,2013-01-14 18:43:00,
2013-01-14 12:53:00,22.0,-99.9,-100.00,WSW,238,2.0,5.0,-999,0.00,,,0.00,,2013-01-14 18:53:00,
2013-01-14 13:03:00,23.0,-99.9,-100.00,WNW,299,3.0,6.0,-999,0.00,,,0.00,,2013-01-14 19:03:00,
2013-01-14 13:13:00,23.0,-99.9,-100.00,WNW,299,3.0,6.0,-999,0.00,,,0.00,,2013-01-14 19:13:00,
2013-01-14 13:22:00,23.0,-99.9,-100.00,WNW,299,3.0,6.0,-999,0.00,,,0.00,,2013-01-14 19:22:00,
2013-01-14 13:43:00,25.0,-99.9,-100.00,WSW,251,3.0,7.0,-999,0.00,,,0.00,,2013-01-14 19:43:00,
2013-01-14 13:53:00,25.0,-99.9,-100.00,WSW,251,3.0,7.0,-999,0.00,,,0.00,,2013-01-14 19:53:00,
2013-01-14 14:00:00,26.0,-99.9,-100.00,West,272,1.0,4.0,-999,0.00,,,0.00,,2013-01-14 20:00:00,
2013-01-14 14:04:00,25.0,-99.9,-100.00,WSW,258,4.0,7.0,-999,0.00,,,0.00,,2013-01-14 20:04:00,
2013-01-14 14:13:00,25.0,-99.9,-100.00,WSW,258,4.0,7.0,-999,0.00,,,0.00,,2013-01-14 20:13:00,
2013-01-14 14:23:00,25.0,-99.9,-100.00,WSW,258,4.0,7.0,-999,0.00,,,0.00,,2013-01-14 20:23:00,
2013-01-14 14:34:00,26.0,-99.9,-100.00,West,272,1.0,4.0,-999,0.00,,,0.00,,2013-01-14 20:34:00,
2013-01-14 14:43:00,26.0,-99.9,-100.00,West,272,1.0,4.0,-999,0.00,,,0.00,,2013-01-14 20:43:00,
2013-01-14 14:53:00,26.0,-99.9,-100.00,West,272,1.0,4.0,-999,0.00,,,0.00,,2013-01-14 20:53:00,
2013-01-14 15:23:00,26.0,-99.9,-100.00,NW,309,2.0,4.0,-999,0.00,,,0.00,,2013-01-14 21:23:00,
2013-01-14 15:33:00,27.0,-99.9,-100.00,NNW,343,1.0,4.0,-999,0.00,,,0.00,,2013-01-14 21:33:00,
2013-01-14 15:43:00,27.0,-99.9,-100.00,NNW,343,1.0,4.0,-999,0.00,,,0.00,,2013-01-14 21:43:00,
2013-01-14 15:54:00,27.0,-99.9,-100.00,NNW,343,1.0,4.0,-999,0.00,,,0.00,,2013-01-14 21:54:00,
2013-01-14 16:03:00,27.0,-99.9,-100.00,South,170,2.0,5.0,-999,0.00,,,0.00,,2013-01-14 22:03:00,
2013-01-14 16:13:00,27.0,-99.9,-100.00,South,170,2.0,5.0,-999,0.00,,,0.00,,2013-01-14 22:13:00,
2013-01-14 16:23:00,27.0,-99.9,-100.00,South,170,2.0,5.0,-999,0.00,,,0.00,,2013-01-14 22:23:00,
2013-01-14 16:33:00,27.0,-99.9,-100.00,SSE,153,2.0,3.0,-999,0.00,,,0.00,,2013-01-14 22:33:00,
2013-01-14 16:43:00,27.0,-99.9,-100.00,SSE,153,2.0,3.0,-999,0.00,,,0.00,,2013-01-14 22:43:00,
2013-01-14 16:53:00,27.0,-99.9,-100.00,SSE,153,2.0,3.0,-999,0.00,,,0.00,,2013-01-14 22:53:00,
2013-01-14 17:03:00,26.0,-99.9,-100.00,South,180,3.0,3.0,-999,0.00,,,0.00,,2013-01-14 23:03:00,
2013-01-14 17:12:00,26.0,-99.9,-100.00,South,180,3.0,3.0,-999,0.00,,,0.00,,2013-01-14 23:12:00,
2013-01-14 17:23:00,26.0,-99.9,-100.00,South,180,3.0,3.0,-999,0.00,,,0.00,,2013-01-14 23:23:00,
2013-01-14 17:33:00,24.0,-99.9,-100.00,South,179,3.0,3.0,-999,0.00,,,0.00,,2013-01-14 23:33:00,
2013-01-14 17:43:00,24.0,-99.9,-100.00,South,179,3.0,3.0,-999,0.00,,,0.00,,2013-01-14 23:43:00,
2013-01-14 17:53:00,24.0,-99.9,-100.00,South,179,3.0,3.0,-999,0.00,,,0.00,,2013-01-14 23:53:00,
2013-01-14 18:03:00,23.0,-99.9,-100.00,South,180,2.0,3.0,-999,0.00,,,0.00,,2013-01-15 00:03:00,
2013-01-14 18:12:00,23.0,-99.9,-100.00,South,180,2.0,3.0,-999,0.00,,,0.00,,2013-01-15 00:12:00,
2013-01-14 18:23:00,23.0,-99.9,-100.00,South,180,2.0,3.0,-999,0.00,,,0.00,,2013-01-15 00:23:00,
2013-01-14 18:30:00,20.0,-99.9,-100.00,South,170,2.0,2.0,-999,0.00,,,0.00,,2013-01-15 00:30:00,
2013-01-14 18:33:00,22.0,-99.9,-100.00,South,176,3.0,4.0,-999,0.00,,,0.00,,2013-01-15 00:33:00,
2013-01-14 18:43:00,22.0,-99.9,-100.00,South,176,3.0,4.0,-999,0.00,,,0.00,,2013-01-15 00:43:00,
2013-01-14 18:53:00,22.0,-99.9,-100.00,South,176,3.0,4.0,-999,0.00,,,0.00,,2013-01-15 00:53:00,
2013-01-14 19:03:00,20.0,-99.9,-100.00,South,170,2.0,2.0,-999,0.00,,,0.00,,2013-01-15 01:03:00,
2013-01-14 19:12:00,20.0,-99.9,-100.00,South,170,2.0,2.0,-999,0.00,,,0.00,,2013-01-15 01:12:00,
2013-01-14 19:23:00,20.0,-99.9,-100.00,South,170,2.0,2.0,-999,0.00,,,0.00,,2013-01-15 01:23:00,
2013-01-14 19:30:00,19.0,-99.9,-100.00,SSW,197,2.0,2.0,-999,0.00,,,0.00,,2013-01-15 01:30:00,
2013-01-14 20:03:00,19.0,-99.9,-100.00,SSW,197,2.0,2.0,-999,0.00,,,0.00,,2013-01-15 02:03:00,
2013-01-14 20:12:00,19.0,-99.9,-100.00,SSW,197,2.0,2.0,-999,0.00,,,0.00,,2013-01-15 02:12:00,
2013-01-14 20:23:00,19.0,-99.9,-100.00,SSW,197,2.0,2.0,-999,0.00,,,0.00,,2013-01-15 02:23:00,
2013-01-14 20:43:00,19.0,-99.9,-100.00,SW,218,2.0,2.0,-999,0.00,,,0.00,,2013-01-15 02:43:00,
2013-01-14 20:53:00,19.0,-99.9,-100.00,SW,218,2.0,2.0,-999,0.00,,,0.00,,2013-01-15 02:53:00,
2013-01-14 21:03:00,18.0,-99.9,-100.00,SSW,198,1.0,2.0,-999,0.00,,,0.00,,2013-01-15 03:03:00,
2013-01-14 21:12:00,18.0,-99.9,-100.00,SSW,198,1.0,2.0,-999,0.00,,,0.00,,2013-01-15 03:12:00,
2013-01-14 21:22:00,18.0,-99.9,-100.00,SSW,198,1.0,2.0,-999,0.00,,,0.00,,2013-01-15 03:22:00,
2013-01-14 21:33:00,16.0,-99.9,-100.00,SW,220,1.0,2.0,-999,0.00,,,0.00,,2013-01-15 03:33:00,
2013-01-14 21:43:00,16.0,-99.9,-100.00,SW,220,1.0,2.0,-999,0.00,,,0.00,,2013-01-15 03:43:00,
2013-01-14 21:53:00,16.0,-99.9,-100.00,SW,220,1.0,2.0,-999,0.00,,,0.00,,2013-01-15 03:53:00,
2013-01-14 22:03:00,16.0,-99.9,-100.00,SW,216,2.0,2.0,-999,0.00,,,0.00,,2013-01-15 04:03:00,
2013-01-14 22:12:00,16.0,-99.9,-100.00,SW,216,2.0,2.0,-999,0.00,,,0.00,,2013-01-15 04:12:00,
2013-01-14 22:22:00,16.0,-99.9,-100.00,SW,216,2.0,2.0,-999,0.00,,,0.00,,2013-01-15 04:22:00,
2013-01-14 22:33:00,16.0,-99.9,-100.00,SSW,211,1.0,1.0,-999,0.00,,,0.00,,2013-01-15 04:33:00,
2013-01-14 22:43:00,16.0,-99.9,-100.00,SSW,211,1.0,1.0,-999,0.00,,,0.00,,2013-01-15 04:43:00,
2013-01-14 22:53:00,16.0,-99.9,-100.00,SSW,211,1.0,1.0,-999,0.00,,,0.00,,2013-01-15 04:53:00,
2013-01-14 23:04:00,13.0,-99.9,-100.00,South,180,2.0,2.0,-999,0.00,,,0.00,,2013-01-15 05:04:00,
2013-01-14 23:12:00,13.0,-99.9,-100.00,South,180,2.0,2.0,-999,0.00,,,0.00,,2013-01-15 05:12:00,
2013-01-14 23:23:00,13.0,-99.9,-100.00,South,180,2.0,2.0,-999,0.00,,,0.00,,2013-01-15 05:23:00,
2013-01-14 23:33:00,15.0,-99.9,-100.00,SW,222,2.0,2.0,-999,0.00,,,0.00,,2013-01-15 05:33:00,
2013-01-14 23:43:00,15.0,-99.9,-100.00,SW,222,2.0,2.0,-999,0.00,,,0.00,,2013-01-15 05:43:00,
2013-01-14 23:53:00,15.0,-99.9,-100.00,SW,222,2.0,2.0,-999,0.00,,,0.00,,2013-01-15 05:53:00,